Location: Newark
(51.5033°N, 0.1199°W)
Time: 01:57:49
(UTC+00:00)

PicSat - Pass Details

Date: 21 September 2019
Orbit: 486 x 499 km, 97.5° (Epoch: 18 October)

Event Time Altitude Azimuth Distance (km) Brightness Sun altitude
Exits shadow 21:08:04 21° 6° (N) 1,184 ? -27.4°
Drops below altitude 10° 21:09:26 10° 357° (N) 1,717 ? -27.5°
Sets 21:11:35 0° 352° (N) 2,607 ? -27.8°
